This demonstration page uses our WeatherBlox Daily Observations layout. Learn more.

Left ArrowRight Arrow

31.31129, -92.44514

Hourly Observations for September 1, 2022

Temp ( °F °C ) Dew Point ( °F °C ) Humidity (%) Winds ( mph kmh ) Pressure ( in mb ) Visibility ( mi km ) Precip ( " mm )
12:53 am 00:53 Mostly Cloudy 79 26.1 73 22.8 82 82 Calm 29.98 1015 10 16 0.00 0.00
1:53 am 01:53 Mostly Cloudy 78 25.6 74 23.3 87 87 Calm 29.97 1015 10 16 0.00 0.00
2:53 am 02:53 Clear 78 25.6 74 23.3 87 87 Calm 29.96 1015 10 16 0.00 0.00
3:53 am 03:53 Clear 77 25 74 23.3 90 90 NW 3 6 29.96 1015 10 16 0.00 0.00
4:53 am 04:53 Clear 78 25.6 74 23.3 87 87 Calm 29.96 1015 10 16 0.00 0.00
5:53 am 05:53 Clear 76 24.4 73 22.8 91 91 Calm 29.97 1015 10 16 0.00 0.00
6:53 am 06:53 Sunny 76 24.4 73 22.8 91 91 Calm 29.98 1015 10 16 0.00 0.00
7:53 am 07:53 Mostly Sunny 79 26.1 75 23.9 88 88 Calm 30.00 1016 9 14 0.00 0.00
8:53 am 08:53 Mostly Sunny 83 28.3 75 23.9 77 77 Calm 30.00 1016 10 16 0.00 0.00
9:53 am 09:53 Sunny 89 31.7 75 23.9 63 63 Calm 30.01 1016 10 16 0.00 0.00
10:53 am 10:53 Sunny 90 32.2 74 23.3 59 59 SE 5 7 30.00 1016 10 16 0.00 0.00
11:53 am 11:53 Partly Cloudy 93 33.9 75 23.9 56 56 E 5 7 30.00 1016 10 16 0.00 0.00
12:53 pm 12:53 Partly Cloudy 93 33.9 73 22.8 52 52 VRB 3 6 29.98 1015 10 16 0.00 0.00
1:53 pm 13:53 Mostly Cloudy 90 32.2 74 23.3 59 59 E 5 7 29.96 1015 10 16 0.01 0.13
2:53 pm 14:53 Mostly Sunny 92 33.3 73 22.8 54 54 VRB 3 6 29.93 1014 10 16 0.00 0.00
3:53 pm 15:53 Mostly Sunny 94 34.4 74 23.3 53 53 N 9 15 29.90 1013 10 16 0.00 0.00
4:53 pm 16:53 Mostly Sunny 90 32.2 73 22.8 58 58 ENE 5 7 29.89 1012 10 16 0.00 0.00
5:53 pm 17:53 Sunny 87 30.6 77 25 72 72 N 5 7 29.90 1013 10 16 0.00 0.00
6:53 pm 18:53 Sunny 85 29.4 78 25.6 80 80 NNE 6 9 29.88 1012 10 16 0.00 0.00
7:53 pm 19:53 Clear 84 28.9 77 25 80 80 Calm 29.91 1013 10 16 0.00 0.00
8:53 pm 20:53 Clear 82 27.8 77 25 85 85 Calm 29.94 1014 10 16 0.00 0.00
9:53 pm 21:53 Clear 81 27.2 77 25 88 88 WNW 5 7 29.95 1014 10 16 0.00 0.00
10:53 pm 22:53 Partly Cloudy 80 26.7 76 24.4 87 87 W 7 11 29.96 1014 10 16 0.00 0.00
11:53 pm 23:53 Clear 79 26.1 74 23.3 85 85 W 6 9 29.96 1015 10 16 0.00 0.00

Powered by AerisWeather